Regional Weather Roundup
Issued by NWS Little Rock, AR

Home | Current Version | Previous Version | Graphics & Text | Print | Product List | Glossary On
Versions: 1 2 3 4 5 6 7 8 9 10 11 12 13 14 15 16 17 18 19 20 21 22 23 24 25 26 27 28 29 30 31 32 33 34 35 36 37 38 39 40 41 42 43 44 45 46 47 48 49 50
000
ASUS44 KLZK 251305
RWRLZK

WEATHER ROUNDUP FOR ARKANSAS
NATIONAL WEATHER SERVICE LITTLE ROCK AR
800 AM CDT MON MAY 25 2015

NOTE: "FAIR" INDICATES FEW OR NO CLOUDS BELOW 12,000 FEET WITH NO
SIGNIFICANT WEATHER AND/OR OBSTRUCTIONS TO VISIBILITY.

ARZ001-003-010-029-251400-
NORTHWEST ARKANSAS

CITY           SKY/WX    TMP DP  RH WIND       PRES   REMARKS
FAYETTEVILLE   MOSUNNY   67  66  97 MISG      29.97R
FORT SMITH     CLOUDY    66  64  93 NE5       29.96R FOG
HARRISON       CLOUDY    66  64  93 E6        30.00R
BENTONVILLE    MOSUNNY   66  63  88 S7        29.97S
ROGERS         FOG       66  64  93 SE9       29.98R VSB 1
SILOAM SPGS    MOSUNNY   66  61  82 S7        29.97S
HIGHFILL       MOSUNNY   66  65  96 S8        29.96S
SPRINGDALE     MOSUNNY   66  66 100 S6        29.99R
$$

ARZ004-005-016-251400-
NORTH CENTRAL ARKANSAS

CITY           SKY/WX    TMP DP  RH WIND       PRES   REMARKS
BATESVILLE     CLOUDY    72  66  83 S5        30.02R
FLIPPIN        CLOUDY    68  66  94 CALM      29.98R
MTN HOME       CLOUDY    68  67  96 SE6       30.00R
$$

ARZ040-041-251400-
WEST CENTRAL ARKANSAS

CITY           SKY/WX    TMP DP  RH WIND       PRES   REMARKS
MENA           CLOUDY    72  70  94 CALM      30.00R
MOUNT IDA      CLOUDY    70  66  87 VRB3      29.98R
$$

ARZ009-017-025-026-028-251400-
NORTHEAST ARKANSAS

CITY           SKY/WX    TMP DP  RH WIND       PRES   REMARKS
CORNING        CLOUDY    70  70 100 S12       30.04R
JONESBORO      CLOUDY    69  68  96 S6        30.04R
NEWPORT        CLOUDY    71  70  97 S8        30.04R
WALNUT RIDGE   PTSUNNY   70  66  88 S9        30.03R
$$

ARZ022-023-033-042-044-251400-
CENTRAL ARKANSAS

CITY           SKY/WX    TMP DP  RH WIND       PRES   REMARKS
LITTLE ROCK    CLOUDY    72  67  84 S6        30.02R
N LITTLE ROCK    N/A     70  69  98 S6        30.02R
JACKSONVILLE   CLOUDY    71  69  94 S6        30.02R
SEARCY         CLOUDY    71  69  93 S7        30.04R
HOT SPRINGS    CLOUDY    70  66  87 S5        30.01R
RUSSELLVILLE   CLOUDY    70  67  90 E6        29.99R
CLINTON        CLOUDY    72  68  88 S5        30.02S
$$

ARZ036-251400-
EAST ARKANSAS

CITY           SKY/WX    TMP DP  RH WIND       PRES   REMARKS
WEST MEMPHIS   PTSUNNY   70  69  97 S8        30.05R
$$

ARZ050-053-066-070-073-251400-
SOUTHWEST ARKANSAS

CITY           SKY/WX    TMP DP  RH WIND       PRES   REMARKS
ARKADELPHIA    PTSUNNY   71  71 100 S3        30.01S
CAMDEN         CLOUDY    70  66  88 CALM      30.02R
TEXARKANA      CLOUDY    71  68  90 S8        30.00R
EL DORADO      CLOUDY    71  68  90 S7        30.02S
DE QUEEN       CLOUDY    71  68  90 S7        29.97R
$$

ARZ056-057-069-251400-
SOUTHEAST ARKANSAS

CITY           SKY/WX    TMP DP  RH WIND       PRES   REMARKS
PINE BLUFF     CLOUDY    70  68  93 S7        30.02R
STUTTGART      CLOUDY    72  66  83 MISG      30.04R
MONTICELLO     CLOUDY    71  69  93 S5        30.04R

$$





USA.gov is the U.S. government's official web portal to all federal, state and local government web resources and services.